SCP
0 0 0 0 0 0 0 0 0 0 -0 -0 -0 -0 -0 0 0 0 0 0 0 0 0 0 -0 -0 -0 -0 -0 -0 -0 -0 -0 -0 -0 -0 0 -0 0 0 -0 0 0
-0 -0 0 0 -0 -0 0 0 -0 -0 -0 -0 -0 -0 -0 0 0 0 0 0 0 0 0 0 -0 -0 -0 -0 -0 -0 -0 -0 -0 -0 -0 0 0 -0 0 0 0 0 -0
-0 -0 0 0 -0 -0 -0 -0 -0 -0 -0 -0 -0 -0 0 0 0 0 0 0 0 -0 0 0 -0 -0 -0 -0 -0 -0 -0 -0 -0 -0 -0 -0 0 -0 -0 0 0 -0 -0
-0 -0 0 -0 -0 -0 -0 -0 -0 -0 -0 -0 -0 -0 -0 -0 0 0 0 0 -0 -0 0 0 0 0 -0 -0 -0 -0 -0 -0 -0 -0 -0 -0 0 0 0 0 0 0 -0
-0 -0 -0 -0 -0 -0 -0 0 -0 -0 -0 -0 -0 -0 -0 -0 0 0 -0 -0 -0 -0 -0 0 0 -0 -0 -0 0 -0 -0 -0 -0 -0 -0 -0 -0 -0 -0 0 0 0 -0
-0 -0 -0 -0 -0 -0 -0 -0 -0 -0 -0 -0 -0 -0 -0 -0 0 0 -0 -0 -0 -0 -0 -0 -0 -0 -0 -0 -0 -0 0 -0 -0 -0 -0 -0 -0 -0 0 -0 0 0 -0
-0 -0 -0 -0 -0 -0 -0 -0 -0 -0 -0 -0 -0 -0 -0 -0 0 0 0 -0 -0 -0 -0 0 0 0 0 -0 -0 0 0 -0 0 0 -0 0 -0 0 -0 0 -0 0 -0
-0 -0 -0 -0 -0 -0 -0 -0 -0 -0 -0 -0 -0 -0 -0 -0 0 -0 -0 -0 -0 -0 -0 0 0 -0 -0 -0 -0 0 -0 0 -0 -0 0 0 -0 -0 -0 0 0 0 -0
-0 -0 -0 -0 -0 -0 -0 -0 -0 -0 -0 -0 -0 -0 -0 -0 0 -0 -0 -0 -0 -0 -0 -0 -0 -0 -0 -0 -0 0 0 -0 -0 0 0 -0 0 0 0 -0 0 0 -0
-0 -0 -0 -0 -0 -0 0 -0 -0 -0 -0 -0 -0 -0 -0 -0 -0 -0 -0 0 0 -0 -0 0 -0 -0 -0 -0 -0 0 -0 -0 -0 -0 -0 0 0 -0 -0 -0 -0 -0 -0
-0 -0 -0 -0 -0 -0 0 0 -0 -0 -0 -0 -0 -0 -0 -0 -0 -0 -0 0 0 0 0 0 -0 -0 -0 -0 -0 -0 -0 -0 -0 -0 -0 -0 0 0 -0 -0 -0 -0 -0
-0 -0 -0 -0 -0 -0 0 0 -0 -0 -0 -0 -0 -0 -0 -0 0 0 -0 0 0 0 -0 -0 -0 0 -0 -0 0 0 -0 0 -0 -0 -0 -0 0 0 -0 -0 -0 -0 -0
-0 0 -0 -0 0 -0 0 0 0 0 0 -0 -0 -0 0 0 0 -0 -0 -0 -0 0 -0 0 -0 -0 -0 0 -0 -0 -0 -0 -0 -0 -0 -0 0 0 -0 -0 -0 -0 -0
0 0 -0 -0 -0 0 0 0 0 0 0 0 -0 -0 0 0 0 0 -0 -0 -0 -0 0 -0 -0 -0 -0 -0 -0 -0 -0 -0 -0 -0 -0 -0 0 0 -0 0 0 0 0
-0 0 0 0 -0 -0 0 0 0 0 0 0 -0 -0 -0 0 0 -0 0 -0 -0 -0 -0 -0 -0 -0 -0 -0 -0 -0 -0 -0 -0 -0 -0 -0 -0 -0 -0 -0 -0 -0 -0
0 -0 -0 -0 -0 -0 -0 -0 0 0 0 0 0 -0 -0 0 -0 0 -0 0 -0 -0 -0 -0 -0 0 -0 -0 -0 -0 -0 -0 -0 0 -0 -0 -0 -0 -0 -0 -0 -0 -0
0 0 -0 -0 -0 -0 -0 -0 0 0 0 -0 -0 -0 -0 0 0 -0 0 -0 -0 0 -0 -0 -0 0 0 -0 -0 -0 -0 -0 0 0 -0 -0 -0 -0 0 0 -0 -0 -0
-0 0 -0 0 -0 -0 -0 0 -0 -0 0 -0 -0 0 -0 0 0 0 0 -0 -0 0 0 0 0 0 0 -0 -0 -0 -0 0 0 -0 -0 -0 -0 -0 0 0 0 -0 -0
-0 -0 -0 -0 -0 -0 0 -0 0 0 0 0 -0 -0 0 0 0 0 -0 0 0 0 0 0 0 0 0 0 0 0 0 0 -0 -0 -0 -0 -0 0 0 -0 0 0 0
0 0 0 -0 0 0 0 0 0 0 0 0 0 -0 0 0 0 0 0 0 0 0 -0 0 0 0 0 -0 -0 -0 -0 0 0 -0 -0 0 0 0 0 0 0 0 0
0 -0 -0 -0 0 0 0 0 0 0 0 0 0 -0 0 0 0 -0 0 0 -0 0 0 0 0 -0 0 0 -0 0 -0 0 -0 -0 -0 0 0 0 0 0 0 0 0
-0 -0 -0 -0 -0 -0 0 0 0 0 0 0 0 0 0 -0 -0 -0 0 0 0 0 0 0 0 0 0 0 0 0 -0 -0 -0 -0 -0 0 0 0 0 0 0 0 0
-0 -0 -0 -0 -0 0 0 0 0 0 0 0 0 0 0 -0 0 0 -0 0 0 0 0 0 0 0 -0 0 0 0 0 0 0 0 0 0 0 0 0 0 0 0 0
-0 -0 -0 -0 -0 0 -0 -0 0 0 0 0 0 0 -0 -0 0 0 0 0 0 0 0 0 0 0 0 -0 0 0 0 0 0 0 0 0 0 0 0 -0 0 0 0
-0 -0 -0 -0 -0 -0 -0 -0 0 0 0 0 0 0 0 0 0 0 0 0 0 0 0 0 -0 -0 -0 -0 0 -0 -0 0 0 0 0 0 0 0 0 0 -0 0 0
0 0 -0 -0 -0 -0 -0 -0 -0 -0 0 0 0 0 0 0 0 0 0 0 0 0 0 0 0 0 0 -0 -0 0 0 0 0 0 -0 -0 -0 -0 0 0 0 -0 -0
Wind_Speed_500mb
39 39 38 37 37 35 35 36 34 37 37 38 35 32 34 36 36 41 42 36 33 30 30 27 23 20 15 13 12 9 6 4 4 5 8 12 16 17 11 10 11 12 14
45 41 37 36 38 36 34 33 33 31 33 35 32 33 31 33 35 36 40 34 30 26 23 23 21 17 13 11 8 6 3 3 4 5 5 9 15 14 11 7 2 7 12
45 41 36 34 36 34 28 28 28 28 27 31 31 30 23 27 32 36 38 30 22 20 18 18 18 17 14 11 5 2 7 4 5 6 11 13 18 12 19 21 9 5 8
46 43 40 37 31 31 27 22 25 26 27 27 27 27 28 28 23 32 33 22 16 15 14 18 15 15 15 9 8 9 7 1 3 5 12 15 20 25 19 28 17 14 7
47 43 39 36 32 27 22 22 20 22 22 24 23 26 26 17 27 27 29 24 18 12 11 13 15 18 15 12 12 11 4 4 4 6 8 11 7 19 22 33 24 17 14
45 41 36 33 29 25 20 20 19 19 19 20 23 21 19 20 21 30 27 26 23 18 14 14 15 12 16 15 11 6 6 4 6 5 7 13 13 12 19 31 29 24 20
45 39 35 31 28 27 22 19 17 18 20 18 21 20 20 18 16 30 30 24 23 21 17 16 14 13 10 10 10 11 10 5 6 3 7 17 19 16 15 23 31 29 25
38 36 33 29 28 26 22 19 19 18 21 21 17 18 21 20 18 23 23 24 25 21 18 16 15 11 12 12 13 12 7 4 2 7 5 15 15 12 12 16 20 25 24
35 35 35 28 27 25 21 21 20 18 17 15 15 17 12 18 24 19 17 17 19 17 17 16 16 15 14 11 10 11 8 5 3 7 10 16 15 12 13 15 20 22 22
35 32 31 30 28 25 23 21 20 17 16 13 13 12 10 26 23 15 14 15 16 16 16 18 19 16 12 10 10 9 7 5 6 4 11 10 13 12 14 16 18 18 16
34 31 30 28 26 24 24 22 19 17 15 11 14 18 22 27 19 16 14 15 14 15 17 19 20 18 16 14 8 8 8 7 5 8 6 10 13 15 11 13 15 15 11
36 36 33 31 28 26 28 24 22 20 16 15 18 18 20 18 16 15 14 14 14 15 18 19 22 20 17 15 9 8 12 9 7 5 6 9 14 16 13 13 12 13 10
36 34 32 32 30 28 28 26 24 22 19 19 23 17 22 17 17 14 11 11 13 14 16 16 17 17 17 15 11 11 13 9 7 2 4 9 12 16 19 14 13 13 13
34 27 28 29 31 30 27 26 24 23 21 20 22 20 24 20 18 13 9 10 11 15 13 13 11 13 16 15 14 10 12 12 8 4 1 9 14 16 12 12 13 13 13
29 29 29 29 28 28 30 31 29 25 21 22 22 20 24 23 19 14 11 14 12 8 10 12 9 13 16 16 15 13 9 9 8 3 3 9 15 17 17 14 13 13 14
30 30 30 31 28 32 26 30 30 27 24 24 22 22 25 23 20 13 10 12 15 11 9 13 12 16 18 17 18 11 8 12 7 4 5 9 15 15 14 11 10 12 13
35 31 32 31 31 32 30 28 27 26 26 25 21 21 28 23 19 15 12 13 15 13 12 12 10 15 18 16 14 15 12 13 6 2 4 9 12 15 12 12 11 10 10
32 30 29 31 33 33 31 33 31 30 28 27 26 23 26 22 17 15 9 14 9 11 12 14 12 13 17 17 14 12 13 14 8 4 3 9 12 12 11 12 12 12 12
31 32 29 29 32 33 32 33 38 34 32 29 32 27 23 25 15 15 12 19 11 10 10 11 8 11 15 17 16 14 14 12 8 5 4 5 9 10 11 10 10 12 14
34 34 33 29 30 32 32 37 39 37 38 35 35 32 23 27 20 13 16 17 12 12 11 9 13 16 19 21 18 14 15 12 11 9 8 6 6 6 9 11 12 10 11
39 39 38 36 33 33 34 38 43 44 45 42 39 36 27 29 23 18 20 20 17 14 10 10 11 19 17 19 19 12 11 14 15 14 12 10 5 3 7 10 9 9 8
48 43 41 37 34 29 29 30 39 41 45 43 40 37 34 34 30 27 16 21 17 11 11 10 7 12 15 14 15 10 7 11 16 15 14 14 11 8 7 6 6 6 6
53 50 44 39 34 29 26 28 33 39 40 42 42 39 40 36 28 27 14 22 19 17 10 10 9 8 12 16 16 11 6 9 13 22 17 16 16 14 11 11 14 12 12
56 51 45 38 33 29 26 31 38 42 37 41 42 41 37 32 30 26 16 20 23 18 14 11 9 8 7 11 18 25 11 6 7 7 19 21 19 19 18 15 15 15 18
54 50 48 41 34 28 26 34 39 39 35 36 40 41 37 35 33 24 19 23 18 24 15 12 10 8 7 7 2 25 17 11 8 7 6 14 27 26 25 22 19 21 22
51 46 44 45 39 31 26 37 41 40 40 41 43 40 40 34 30 24 23 23 20 14 14 9 7 5 7 11 16 8 7 6 9 8 10 12 11 19 25 28 30 28 26
Wind_Direction_500mb
159 150 136 132 131 131 132 134 136 144 141 141 139 141 149 152 146 148 153 149 142 142 145 148 155 154 154 161 160 143 107 66 58 63 75 97 109 112 84 61 109 145 145
157 153 141 139 135 133 131 132 135 138 140 146 148 149 146 158 156 154 154 154 152 150 150 147 152 156 156 157 160 134 57 315 258 248 201 146 131 128 134 147 91 166 159
158 152 145 141 135 131 126 128 132 137 140 149 151 154 144 152 165 162 162 160 165 166 166 165 152 167 167 169 186 254 335 302 269 232 203 195 145 132 220 200 211 194 163
160 154 152 144 144 140 129 135 141 144 147 148 155 152 160 163 167 178 180 177 173 182 182 173 176 191 190 197 255 298 315 257 219 199 211 204 212 241 220 191 207 205 179
159 155 156 153 152 147 136 134 139 142 145 146 149 153 165 160 174 172 177 185 197 200 212 200 214 210 209 235 267 295 284 141 138 143 186 194 221 195 181 181 209 209 205
157 156 160 158 159 160 149 143 143 141 148 149 154 154 161 169 171 194 199 206 218 228 224 217 227 208 218 237 251 241 196 160 122 142 175 186 164 194 195 206 201 216 219
160 160 165 166 165 167 162 159 152 152 153 160 166 175 190 195 202 189 195 211 219 225 231 223 220 214 220 227 203 188 174 190 189 226 223 225 225 231 215 204 208 220 218
164 165 168 169 169 171 168 160 158 162 167 179 185 197 204 212 179 186 198 209 216 221 220 218 206 188 178 159 155 167 180 162 241 223 232 171 183 195 205 203 208 203 192
172 170 172 175 172 173 173 167 166 175 175 179 190 215 223 176 159 166 170 182 197 197 197 197 180 178 177 178 180 181 170 183 164 113 153 162 175 181 172 198 197 181 190
178 177 177 178 176 180 177 180 174 183 182 183 202 203 173 163 166 172 169 182 193 195 196 190 180 189 192 191 175 192 197 188 200 122 178 181 185 187 172 177 176 174 184
181 180 178 188 188 186 184 183 180 184 183 183 181 168 160 162 171 176 180 184 189 192 192 188 186 192 200 197 189 206 199 180 187 193 163 190 173 169 170 167 174 181 181
187 185 189 193 198 195 191 191 185 190 186 181 178 175 177 175 172 174 178 182 185 189 191 195 198 202 201 204 211 199 171 157 141 149 202 190 177 173 168 174 184 184 184
184 190 196 196 196 196 197 198 194 199 190 186 185 182 181 185 174 177 183 191 197 194 194 205 212 216 211 219 215 194 193 193 179 185 221 203 195 179 172 186 178 188 188
188 197 201 198 203 201 204 211 205 204 195 192 190 187 187 182 179 187 199 201 209 212 214 221 218 216 221 215 204 201 198 203 224 214 245 198 191 181 165 185 177 183 186
199 201 205 207 213 210 209 212 209 207 198 197 195 192 193 189 192 202 213 224 211 189 208 212 229 224 224 204 195 188 200 218 238 229 244 202 193 186 192 195 192 193 201
208 212 210 214 214 210 217 212 207 205 202 198 200 197 195 192 194 207 228 221 203 201 235 215 222 227 213 206 205 215 223 198 216 229 230 217 199 193 190 183 186 191 198
212 212 214 215 216 217 220 211 202 210 207 198 202 205 197 199 206 229 268 216 211 233 219 210 233 228 220 212 215 186 181 159 152 126 202 197 198 193 180 184 178 183 190
220 214 213 214 215 220 222 219 211 211 210 201 202 200 200 203 215 230 232 177 192 207 220 226 246 208 210 188 172 189 177 169 156 105 107 192 187 183 186 183 181 179 182
218 214 213 213 214 218 224 221 217 221 214 209 207 209 208 205 211 182 176 180 191 196 206 203 193 185 177 173 177 176 164 176 175 192 125 149 172 173 183 188 183 179 175
217 216 216 215 215 216 218 222 222 219 218 216 208 207 209 198 186 186 172 180 187 188 193 190 212 192 172 171 175 173 177 192 205 214 210 170 126 169 183 186 188 192 186
216 216 215 216 217 218 222 225 221 216 214 213 209 204 206 194 189 164 164 154 166 179 182 195 188 183 187 188 180 188 200 198 211 213 211 219 198 180 201 189 189 197 214
217 219 216 219 222 228 232 237 227 216 211 204 206 204 201 197 192 180 164 187 178 177 173 169 189 210 198 199 205 207 181 200 211 212 213 214 214 195 192 196 189 199 220
216 220 219 220 225 232 237 223 210 207 202 202 205 202 195 200 203 198 209 204 200 190 181 182 188 183 206 216 216 210 208 221 218 227 224 221 213 214 215 227 229 237 235
213 216 218 221 226 230 234 215 201 199 198 204 205 195 194 200 191 180 196 195 188 184 159 146 159 156 186 226 245 213 210 230 196 218 224 215 221 225 227 239 249 255 254
209 213 215 219 221 230 233 208 199 201 204 197 195 190 196 200 200 197 197 173 172 166 153 134 127 145 82 66 71 202 215 257 247 227 239 234 235 238 237 241 242 259 266
206 206 218 221 221 224 228 203 201 200 198 196 191 191 195 197 201 202 203 187 162 155 156 157 152 148 68 73 77 127 229 264 258 246 281 266 255 259 252 252 253 258 256
Wind_Speed_850mb
39 39 38 37 37 35 35 36 34 37 37 38 35 32 34 36 36 41 42 36 33 30 30 27 23 20 15 13 12 9 6 4 4 5 8 12 16 17 11 10 11 12 14
45 41 37 36 38 36 34 33 33 31 33 35 32 33 31 33 35 36 40 34 30 26 23 23 21 17 13 11 8 6 3 3 4 5 5 9 15 14 11 7 2 7 12
45 41 36 34 36 34 28 28 28 28 27 31 31 30 23 27 32 36 38 30 22 20 18 18 18 17 14 11 5 2 7 4 5 6 11 13 18 12 19 21 9 5 8
46 43 40 37 31 31 27 22 25 26 27 27 27 27 28 28 23 32 33 22 16 15 14 18 15 15 15 9 8 9 7 1 3 5 12 15 20 25 19 28 17 14 7
47 43 39 36 32 27 22 22 20 22 22 24 23 26 26 17 27 27 29 24 18 12 11 13 15 18 15 12 12 11 4 4 4 6 8 11 7 19 22 33 24 17 14
45 41 36 33 29 25 20 20 19 19 19 20 23 21 19 20 21 30 27 26 23 18 14 14 15 12 16 15 11 6 6 4 6 5 7 13 13 12 19 31 29 24 20
45 39 35 31 28 27 22 19 17 18 20 18 21 20 20 18 16 30 30 24 23 21 17 16 14 13 10 10 10 11 10 5 6 3 7 17 19 16 15 23 31 29 25
38 36 33 29 28 26 22 19 19 18 21 21 17 18 21 20 18 23 23 24 25 21 18 16 15 11 12 12 13 12 7 4 2 7 5 15 15 12 12 16 20 25 24
35 35 35 28 27 25 21 21 20 18 17 15 15 17 12 18 24 19 17 17 19 17 17 16 16 15 14 11 10 11 8 5 3 7 10 16 15 12 13 15 20 22 22
35 32 31 30 28 25 23 21 20 17 16 13 13 12 10 26 23 15 14 15 16 16 16 18 19 16 12 10 10 9 7 5 6 4 11 10 13 12 14 16 18 18 16
34 31 30 28 26 24 24 22 19 17 15 11 14 18 22 27 19 16 14 15 14 15 17 19 20 18 16 14 8 8 8 7 5 8 6 10 13 15 11 13 15 15 11
36 36 33 31 28 26 28 24 22 20 16 15 18 18 20 18 16 15 14 14 14 15 18 19 22 20 17 15 9 8 12 9 7 5 6 9 14 16 13 13 12 13 10
36 34 32 32 30 28 28 26 24 22 19 19 23 17 22 17 17 14 11 11 13 14 16 16 17 17 17 15 11 11 13 9 7 2 4 9 12 16 19 14 13 13 13
34 27 28 29 31 30 27 26 24 23 21 20 22 20 24 20 18 13 9 10 11 15 13 13 11 13 16 15 14 10 12 12 8 4 1 9 14 16 12 12 13 13 13
29 29 29 29 28 28 30 31 29 25 21 22 22 20 24 23 19 14 11 14 12 8 10 12 9 13 16 16 15 13 9 9 8 3 3 9 15 17 17 14 13 13 14
30 30 30 31 28 32 26 30 30 27 24 24 22 22 25 23 20 13 10 12 15 11 9 13 12 16 18 17 18 11 8 12 7 4 5 9 15 15 14 11 10 12 13
35 31 32 31 31 32 30 28 27 26 26 25 21 21 28 23 19 15 12 13 15 13 12 12 10 15 18 16 14 15 12 13 6 2 4 9 12 15 12 12 11 10 10
32 30 29 31 33 33 31 33 31 30 28 27 26 23 26 22 17 15 9 14 9 11 12 14 12 13 17 17 14 12 13 14 8 4 3 9 12 12 11 12 12 12 12
31 32 29 29 32 33 32 33 38 34 32 29 32 27 23 25 15 15 12 19 11 10 10 11 8 11 15 17 16 14 14 12 8 5 4 5 9 10 11 10 10 12 14
34 34 33 29 30 32 32 37 39 37 38 35 35 32 23 27 20 13 16 17 12 12 11 9 13 16 19 21 18 14 15 12 11 9 8 6 6 6 9 11 12 10 11
39 39 38 36 33 33 34 38 43 44 45 42 39 36 27 29 23 18 20 20 17 14 10 10 11 19 17 19 19 12 11 14 15 14 12 10 5 3 7 10 9 9 8
48 43 41 37 34 29 29 30 39 41 45 43 40 37 34 34 30 27 16 21 17 11 11 10 7 12 15 14 15 10 7 11 16 15 14 14 11 8 7 6 6 6 6
53 50 44 39 34 29 26 28 33 39 40 42 42 39 40 36 28 27 14 22 19 17 10 10 9 8 12 16 16 11 6 9 13 22 17 16 16 14 11 11 14 12 12
56 51 45 38 33 29 26 31 38 42 37 41 42 41 37 32 30 26 16 20 23 18 14 11 9 8 7 11 18 25 11 6 7 7 19 21 19 19 18 15 15 15 18
54 50 48 41 34 28 26 34 39 39 35 36 40 41 37 35 33 24 19 23 18 24 15 12 10 8 7 7 2 25 17 11 8 7 6 14 27 26 25 22 19 21 22
51 46 44 45 39 31 26 37 41 40 40 41 43 40 40 34 30 24 23 23 20 14 14 9 7 5 7 11 16 8 7 6 9 8 10 12 11 19 25 28 30 28 26
Wind_Direction_850mb
159 150 136 132 131 131 132 134 136 144 141 141 139 141 149 152 146 148 153 149 142 142 145 148 155 154 154 161 160 143 107 66 58 63 75 97 109 112 84 61 109 145 145
157 153 141 139 135 133 131 132 135 138 140 146 148 149 146 158 156 154 154 154 152 150 150 147 152 156 156 157 160 134 57 315 258 248 201 146 131 128 134 147 91 166 159
158 152 145 141 135 131 126 128 132 137 140 149 151 154 144 152 165 162 162 160 165 166 166 165 152 167 167 169 186 254 335 302 269 232 203 195 145 132 220 200 211 194 163
160 154 152 144 144 140 129 135 141 144 147 148 155 152 160 163 167 178 180 177 173 182 182 173 176 191 190 197 255 298 315 257 219 199 211 204 212 241 220 191 207 205 179
159 155 156 153 152 147 136 134 139 142 145 146 149 153 165 160 174 172 177 185 197 200 212 200 214 210 209 235 267 295 284 141 138 143 186 194 221 195 181 181 209 209 205
157 156 160 158 159 160 149 143 143 141 148 149 154 154 161 169 171 194 199 206 218 228 224 217 227 208 218 237 251 241 196 160 122 142 175 186 164 194 195 206 201 216 219
160 160 165 166 165 167 162 159 152 152 153 160 166 175 190 195 202 189 195 211 219 225 231 223 220 214 220 227 203 188 174 190 189 226 223 225 225 231 215 204 208 220 218
164 165 168 169 169 171 168 160 158 162 167 179 185 197 204 212 179 186 198 209 216 221 220 218 206 188 178 159 155 167 180 162 241 223 232 171 183 195 205 203 208 203 192
172 170 172 175 172 173 173 167 166 175 175 179 190 215 223 176 159 166 170 182 197 197 197 197 180 178 177 178 180 181 170 183 164 113 153 162 175 181 172 198 197 181 190
178 177 177 178 176 180 177 180 174 183 182 183 202 203 173 163 166 172 169 182 193 195 196 190 180 189 192 191 175 192 197 188 200 122 178 181 185 187 172 177 176 174 184
181 180 178 188 188 186 184 183 180 184 183 183 181 168 160 162 171 176 180 184 189 192 192 188 186 192 200 197 189 206 199 180 187 193 163 190 173 169 170 167 174 181 181
187 185 189 193 198 195 191 191 185 190 186 181 178 175 177 175 172 174 178 182 185 189 191 195 198 202 201 204 211 199 171 157 141 149 202 190 177 173 168 174 184 184 184
184 190 196 196 196 196 197 198 194 199 190 186 185 182 181 185 174 177 183 191 197 194 194 205 212 216 211 219 215 194 193 193 179 185 221 203 195 179 172 186 178 188 188
188 197 201 198 203 201 204 211 205 204 195 192 190 187 187 182 179 187 199 201 209 212 214 221 218 216 221 215 204 201 198 203 224 214 245 198 191 181 165 185 177 183 186
199 201 205 207 213 210 209 212 209 207 198 197 195 192 193 189 192 202 213 224 211 189 208 212 229 224 224 204 195 188 200 218 238 229 244 202 193 186 192 195 192 193 201
208 212 210 214 214 210 217 212 207 205 202 198 200 197 195 192 194 207 228 221 203 201 235 215 222 227 213 206 205 215 223 198 216 229 230 217 199 193 190 183 186 191 198
212 212 214 215 216 217 220 211 202 210 207 198 202 205 197 199 206 229 268 216 211 233 219 210 233 228 220 212 215 186 181 159 152 126 202 197 198 193 180 184 178 183 190
220 214 213 214 215 220 222 219 211 211 210 201 202 200 200 203 215 230 232 177 192 207 220 226 246 208 210 188 172 189 177 169 156 105 107 192 187 183 186 183 181 179 182
218 214 213 213 214 218 224 221 217 221 214 209 207 209 208 205 211 182 176 180 191 196 206 203 193 185 177 173 177 176 164 176 175 192 125 149 172 173 183 188 183 179 175
217 216 216 215 215 216 218 222 222 219 218 216 208 207 209 198 186 186 172 180 187 188 193 190 212 192 172 171 175 173 177 192 205 214 210 170 126 169 183 186 188 192 186
216 216 215 216 217 218 222 225 221 216 214 213 209 204 206 194 189 164 164 154 166 179 182 195 188 183 187 188 180 188 200 198 211 213 211 219 198 180 201 189 189 197 214
217 219 216 219 222 228 232 237 227 216 211 204 206 204 201 197 192 180 164 187 178 177 173 169 189 210 198 199 205 207 181 200 211 212 213 214 214 195 192 196 189 199 220
216 220 219 220 225 232 237 223 210 207 202 202 205 202 195 200 203 198 209 204 200 190 181 182 188 183 206 216 216 210 208 221 218 227 224 221 213 214 215 227 229 237 235
213 216 218 221 226 230 234 215 201 199 198 204 205 195 194 200 191 180 196 195 188 184 159 146 159 156 186 226 245 213 210 230 196 218 224 215 221 225 227 239 249 255 254
209 213 215 219 221 230 233 208 199 201 204 197 195 190 196 200 200 197 197 173 172 166 153 134 127 145 82 66 71 202 215 257 247 227 239 234 235 238 237 241 242 259 266
206 206 218 221 221 224 228 203 201 200 198 196 191 191 195 197 201 202 203 187 162 155 156 157 152 148 68 73 77 127 229 264 258 246 281 266 255 259 252 252 253 258 256